N1GUJ Weather Reports


Display with metric or nautical units.
time (UTC)temp
F
wind
direction
speed
MPH
gust
MPH
rain 1hr
in
rain 24hr
in
rain mn
in
humidity
%
barometer
mb
20260510081942 50 212 3.0 5.0 0.00 0.00 0.00 85 1006.6
20260510081434 50 212 1.0 5.0 0.00 0.00 0.00 85 1006.8
20260510080939 50 192 0.0 8.0 0.00 0.00 0.00 85 1006.8
20260510080437 50 196 6.0 8.0 0.00 0.00 0.00 85 1006.9
20260510075939 50 168 2.0 5.0 0.00 0.00 0.00 85 1006.8
20260510075433 50 166 3.0 4.0 0.00 0.00 0.00 85 1006.9
20260510074942 50 193 0.0 7.0 0.00 0.00 0.00 85 1006.7
20260510074436 50 170 2.0 7.0 0.00 0.00 0.00 85 1006.8
20260510073939 50 187 2.0 8.0 0.00 0.00 0.00 85 1006.9
20260510073436 50 193 2.0 6.0 0.00 0.00 0.00 85 1006.9
20260510072933 50 133 0.0 5.0 0.00 0.00 0.00 84 1006.8
20260510072433 51 183 2.0 4.0 0.00 0.00 0.00 84 1007.0
20260510071933 51 184 0.0 4.0 0.00 0.00 0.00 83 1007.2
20260510071439 51 208 0.0 7.0 0.00 0.00 0.00 82 1007.2
20260510070936 51 153 0.0 8.0 0.00 0.00 0.00 81 1007.3
20260510070436 51 185 1.0 7.0 0.00 0.00 0.00 80 1007.4
20260510065936 51 206 0.0 5.0 0.00 0.00 0.00 80 1007.5
20260510065437 52 167 3.0 7.0 0.00 0.00 0.00 79 1007.4
20260510064933 52 153 4.0 6.0 0.00 0.00 0.00 78 1007.4
20260510064439 52 190 0.0 8.0 0.00 0.00 0.00 77 1007.3
20260510063936 52 219 4.0 10.0 0.00 0.00 0.00 77 1007.2
20260510063435 52 189 5.0 5.0 0.00 0.00 0.00 77 1007.2
20260510062932 52 195 0.0 4.0 0.00 0.00 0.00 77 1007.1
20260510062433 52 161 3.0 6.0 0.00 0.00 0.00 77 1007.1
20260510061939 52 180 2.0 4.0 0.00 0.00 0.00 77 1007.0
20260510061438 52 205 3.0 8.0 0.00 0.00 0.00 77 1006.9
20260510060932 52 208 2.0 8.0 0.00 0.00 0.00 77 1006.9
20260510060436 52 152 0.0 5.0 0.00 0.00 0.00 77 1006.8
20260510055932 52 216 1.0 7.0 0.00 0.00 0.00 77 1006.9
20260510055432 52 199 7.0 9.0 0.00 0.00 0.00 77 1007.0
20260510054937 52 218 0.0 8.0 0.00 0.00 0.00 77 1007.0
20260510054435 52 150 0.0 9.0 0.00 0.00 0.00 77 1007.0
20260510053935 52 189 0.0 8.0 0.00 0.00 0.00 77 1006.9
20260510053441 52 124 1.0 7.0 0.00 0.00 0.00 77 1006.9
20260510052933 51 163 3.0 5.0 0.00 0.00 0.00 78 1007.1
20260510052441 51 182 4.0 6.0 0.00 0.00 0.00 79 1007.0
20260510051941 51 205 1.0 5.0 0.00 0.00 0.00 79 1007.1
20260510051433 50 179 0.0 6.0 0.00 0.00 0.00 80 1007.1
20260510050935 50 166 0.0 3.0 0.00 0.00 0.00 80 1007.0
20260510050434 49 134 0.0 6.0 0.00 0.00 0.00 81 1007.1
20260510045938 49 144 3.0 3.0 0.00 0.00 0.00 80 1007.1
20260510045435 49 144 2.0 3.0 0.00 0.00 0.00 80 1007.0
20260510044938 49 160 0.0 3.0 0.00 0.00 0.00 80 1007.1
20260510044432 49 160 0.0 2.0 0.00 0.00 0.00 80 1007.1
20260510043933 49 160 0.0 3.0 0.00 0.00 0.00 80 1007.2
20260510043439 49 160 0.0 3.0 0.00 0.00 0.00 80 1007.2
20260510042935 49 160 0.0 5.0 0.00 0.00 0.00 80 1007.0
20260510042432 49 160 0.0 5.0 0.00 0.00 0.00 80 1007.0
20260510041935 49 162 5.0 5.0 0.00 0.00 0.00 80 1006.9
20260510041436 49 167 0.0 1.0 0.00 0.00 0.00 80 1006.8
20260510040938 49 167 0.0 1.0 0.00 0.00 0.00 80 1006.7
20260510040432 49 167 0.0 3.0 0.00 0.00 0.00 80 1006.6
20260510035932 49 167 1.0 3.0 0.00 0.00 0.00 80 1006.7
20260510035435 49 167 0.0 4.0 0.00 0.00 0.00 80 1006.6
20260510034938 49 167 3.0 3.0 0.00 0.00 0.00 80 1006.8
20260510034432 49 166 0.0 2.0 0.00 0.00 0.00 80 1007.0
20260510033932 49 166 0.0 4.0 0.00 0.00 0.00 80 1007.0
20260510033432 49 168 1.0 3.0 0.00 0.00 0.00 80 1007.1
20260510032938 49 168 0.0 5.0 0.00 0.00 0.00 80 1007.2
20260510032438 49 151 0.0 3.0 0.00 0.00 0.00 80 1007.2
20260510031932 49 151 0.0 3.0 0.00 0.00 0.00 80 1007.2
20260510031435 49 151 0.0 4.0 0.00 0.00 0.00 80 1007.1
20260510030933 49 151 3.0 4.0 0.00 0.00 0.00 80 1007.1
20260510030432 49 151 0.0 2.0 0.00 0.00 0.00 80 1007.1
20260510025932 49 151 0.0 3.0 0.00 0.00 0.00 80 1007.2
20260510025432 49 151 0.0 6.0 0.00 0.00 0.00 81 1007.3
20260510024932 49 159 2.0 5.0 0.00 0.00 0.00 81 1007.3
20260510024436 49 95 0.0 3.0 0.00 0.00 0.00 81 1007.2
20260510023935 49 52 0.0 5.0 0.00 0.00 0.00 81 1007.2
20260510023431 48 188 0.0 4.0 0.00 0.00 0.00 81 1007.1
20260510022934 49 347 0.0 4.0 0.00 0.00 0.00 80 1007.2
20260510022432 49 178 0.0 3.0 0.00 0.00 0.00 80 1007.2
20260510021938 49 178 1.0 5.0 0.00 0.00 0.00 80 1007.3
20260510021434 49 178 1.0 3.0 0.00 0.00 0.00 80 1007.3
20260510020932 49 178 0.0 4.0 0.00 0.00 0.00 80 1007.5
20260510020435 49 178 2.0 4.0 0.00 0.00 0.00 80 1007.5
20260510015939 49 178 1.0 5.0 0.00 0.00 0.00 80 1007.6
20260510015431 49 178 1.0 5.0 0.00 0.00 0.00 79 1007.6
20260510014934 49 178 0.0 5.0 0.00 0.00 0.00 79 1007.5
20260510014434 49 178 2.0 4.0 0.00 0.00 0.00 79 1007.6
20260510013937 49 178 0.0 2.0 0.00 0.00 0.00 79 1007.4
20260510013431 49 178 0.0 4.0 0.00 0.00 0.00 79 1007.5
20260510012938 49 179 0.0 3.0 0.00 0.00 0.00 79 1007.6
20260510012437 49 180 1.0 5.0 0.00 0.00 0.00 79 1007.7
20260510011934 49 158 1.0 3.0 0.00 0.00 0.00 79 1007.7
20260510011432 49 174 1.0 3.0 0.00 0.00 0.00 79 1007.7
20260510010934 49 174 0.0 2.0 0.00 0.00 0.00 79 1007.7
20260510010434 49 174 0.0 5.0 0.00 0.00 0.00 78 1007.7
20260510005932 49 243 2.0 3.0 0.00 0.00 0.00 78 1007.8
20260510005431 49 293 1.0 2.0 0.00 0.00 0.00 79 1007.7
20260510004931 49 302 0.0 5.0 0.00 0.00 0.00 78 1007.9
20260510004431 49 193 1.0 4.0 0.00 0.00 0.00 78 1007.9
20260510003931 49 181 0.0 3.0 0.00 0.00 0.00 78 1007.8
20260510003432 49 181 1.0 3.0 0.00 0.00 0.00 78 1007.9
20260510002934 49 181 0.0 3.0 0.00 0.00 0.00 78 1007.9
20260510002437 49 181 0.0 2.0 0.00 0.00 0.00 78 1007.9
20260510001938 49 181 0.0 3.0 0.00 0.00 0.00 78 1007.9
20260510001431 49 181 0.0 4.0 0.00 0.00 0.00 78 1008.0
20260510000931 49 181 0.0 1.0 0.00 0.00 0.00 78 1007.9
20260510000433 49 181 0.0 2.0 0.00 0.00 0.00 77 1007.8
20260509235931 49 181 0.0 4.0 0.00 0.00 0.00 77 1007.8
20260509235431 49 181 0.0 2.0 0.00 0.00 0.00 77 1007.7
20260509234934 49 181 0.0 4.0 0.00 0.00 0.00 77 1007.7
20260509234434 49 181 0.0 3.0 0.00 0.00 0.00 77 1007.7
20260509233931 49 181 1.0 3.0 0.00 0.00 0.00 77 1007.7
20260509233434 49 181 0.0 4.0 0.00 0.00 0.00 76 1007.7
20260509232934 49 181 0.0 1.0 0.00 0.00 0.00 76 1007.7
20260509232431 49 181 0.0 2.0 0.00 0.00 0.00 76 1007.7
20260509231931 50 181 2.0 3.0 0.00 0.00 0.00 76 1007.7
20260509231434 50 175 0.0 2.0 0.00 0.00 0.00 75 1007.6
20260509230931 50 175 0.0 2.0 0.00 0.00 0.00 75 1007.6
20260509230431 50 175 0.0 3.0 0.00 0.00 0.00 75 1007.6
20260509225931 50 220 0.0 3.0 0.00 0.00 0.00 75 1007.7
20260509225431 50 203 0.0 3.0 0.00 0.00 0.00 75 1007.6
20260509224932 50 204 2.0 4.0 0.00 0.00 0.00 75 1007.7
20260509224432 50 161 1.0 4.0 0.00 0.00 0.00 75 1007.8
20260509223933 50 169 1.0 5.0 0.00 0.00 0.00 75 1007.8
20260509223434 50 173 2.0 4.0 0.00 0.00 0.00 75 1007.9
20260509222937 50 185 0.0 3.0 0.00 0.00 0.00 75 1007.8
20260509222440 50 186 3.0 4.0 0.00 0.00 0.00 75 1007.9
20260509221937 49 236 1.0 3.0 0.00 0.00 0.00 75 1007.9
20260509221430 49 173 0.0 2.0 0.00 0.00 0.00 75 1007.9
20260509220933 49 173 3.0 3.0 0.00 0.00 0.00 75 1008.0
20260509220434 49 173 0.0 2.0 0.00 0.00 0.00 75 1008.0
20260509215930 49 189 0.0 1.0 0.00 0.00 0.00 76 1007.9
20260509215432 49 189 0.0 3.0 0.00 0.00 0.00 75 1008.0
20260509214930 49 189 0.0 3.0 0.00 0.00 0.00 75 1008.1
20260509214431 49 189 0.0 2.0 0.00 0.00 0.00 75 1008.1
20260509213934 49 189 0.0 3.0 0.00 0.00 0.00 75 1008.1
20260509213430 49 201 1.0 7.0 0.00 0.00 0.00 75 1008.1
20260509212930 49 165 0.0 2.0 0.00 0.00 0.00 75 1008.2
20260509212430 49 165 0.0 1.0 0.00 0.00 0.00 75 1008.3
20260509211934 49 165 0.0 2.0 0.00 0.00 0.00 75 1008.2
20260509211431 49 165 0.0 1.0 0.00 0.00 0.00 75 1008.3
20260509210930 49 165 1.0 6.0 0.00 0.00 0.00 74 1008.3
20260509210430 49 167 0.0 3.0 0.00 0.00 0.00 74 1008.3
20260509205934 50 167 1.0 3.0 0.00 0.00 0.00 74 1008.4
20260509205431 50 167 0.0 3.0 0.00 0.00 0.00 73 1008.4
20260509204936 50 167 1.0 6.0 0.00 0.00 0.00 73 1008.4
20260509204430 50 156 0.0 3.0 0.00 0.00 0.00 73 1008.4
20260509203933 50 156 0.0 1.0 0.00 0.00 0.00 73 1008.5
20260509203431 50 156 1.0 3.0 0.00 0.00 0.00 73 1008.5
20260509202930 50 156 0.0 3.0 0.00 0.00 0.00 73 1008.6
20260509202430 50 185 1.0 4.0 0.00 0.00 0.00 73 1008.6
20260509201931 50 80 1.0 4.0 0.00 0.00 0.00 72 1008.7
20260509201433 50 178 2.0 5.0 0.00 0.00 0.00 71 1008.6
20260509200930 51 150 0.0 3.0 0.00 0.00 0.00 71 1008.6
20260509200433 51 149 1.0 3.0 0.00 0.00 0.00 71 1008.5
20260509195933 51 149 1.0 3.0 0.00 0.00 0.00 69 1008.5
20260509195430 51 149 1.0 5.0 0.00 0.00 0.00 69 1008.6
20260509194930 51 167 1.0 3.0 0.00 0.00 0.00 69 1008.5
20260509194433 52 167 0.0 4.0 0.00 0.00 0.00 68 1008.5
20260509193930 52 167 0.0 4.0 0.00 0.00 0.00 67 1008.5
20260509193430 52 170 0.0 6.0 0.00 0.00 0.00 68 1008.5
20260509192930 52 174 0.0 4.0 0.00 0.00 0.00 69 1008.4
20260509192433 52 171 0.0 4.0 0.00 0.00 0.00 68 1008.4
20260509191936 52 172 1.0 3.0 0.00 0.00 0.00 70 1008.5
20260509191430 52 183 2.0 6.0 0.00 0.00 0.00 71 1008.5
20260509190933 51 195 0.0 4.0 0.00 0.00 0.00 71 1008.6
20260509190430 51 171 1.0 5.0 0.00 0.00 0.00 69 1008.7
20260509185933 51 161 0.0 2.0 0.00 0.00 0.00 70 1008.9
20260509185430 51 161 0.0 2.0 0.00 0.00 0.00 70 1008.9
20260509184930 51 161 0.0 3.0 0.00 0.00 0.00 67 1009.0
20260509184430 51 226 2.0 3.0 0.00 0.00 0.00 68 1009.0
20260509183937 51 157 2.0 3.0 0.00 0.00 0.00 67 1009.1
20260509183436 51 133 0.0 3.0 0.00 0.00 0.00 65 1009.1
20260509182933 51 144 3.0 3.0 0.00 0.00 0.00 63 1009.2
20260509182431 51 144 0.0 3.0 0.00 0.00 0.00 62 1009.2
20260509181933 51 144 1.0 5.0 0.00 0.00 0.00 61 1009.2
20260509181430 52 207 0.0 3.0 0.00 0.00 0.00 61 1009.2
20260509180934 52 196 2.0 4.0 0.00 0.00 0.00 62 1009.2
20260509180433 52 196 0.0 2.0 0.00 0.00 0.00 62 1009.2
20260509175929 52 196 0.0 4.0 0.00 0.00 0.00 60 1009.2
20260509175429 52 203 1.0 3.0 0.00 0.00 0.00 59 1009.2
20260509174932 53 156 0.0 6.0 0.00 0.00 0.00 58 1009.1
20260509174430 53 153 1.0 5.0 0.00 0.00 0.00 56 1009.1
20260509173929 53 196 2.0 6.0 0.00 0.00 0.00 56 1009.2
20260509173431 53 116 1.0 6.0 0.00 0.00 0.00 53 1009.2
20260509172932 54 199 0.0 6.0 0.00 0.00 0.00 54 1009.2
20260509172435 54 179 2.0 4.0 0.00 0.00 0.00 51 1009.1
20260509171934 54 148 0.0 3.0 0.00 0.00 0.00 51 1009.2
20260509171435 55 194 4.0 7.0 0.00 0.00 0.00 47 1009.2
20260509170933 55 203 1.0 9.0 0.00 0.00 0.00 45 1009.2
20260509170433 56 222 6.0 9.0 0.00 0.00 0.00 44 1009.2
20260509165935 56 201 3.0 5.0 0.00 0.00 0.00 46 1009.1
20260509165432 56 193 1.0 6.0 0.00 0.00 0.00 43 1009.2
20260509164930 56 191 1.0 5.0 0.00 0.00 0.00 46 1009.2
20260509164429 56 215 0.0 5.0 0.00 0.00 0.00 43 1009.3
20260509163932 55 183 0.0 5.0 0.00 0.00 0.00 41 1009.3
20260509163429 55 206 5.0 6.0 0.00 0.00 0.00 42 1009.4
20260509162933 56 188 2.0 7.0 0.00 0.00 0.00 41 1009.4
20260509162432 56 185 3.0 6.0 0.00 0.00 0.00 38 1009.5
20260509161936 56 185 0.0 7.0 0.00 0.00 0.00 39 1009.5
20260509161433 57 202 0.0 4.0 0.00 0.00 0.00 41 1009.5
20260509160929 57 192 0.0 5.0 0.00 0.00 0.00 39 1009.6
20260509160429 58 216 2.0 8.0 0.00 0.00 0.00 37 1009.7
20260509155932 58 189 1.0 3.0 0.00 0.00 0.00 37 1009.6
20260509155435 58 189 0.0 5.0 0.00 0.00 0.00 35 1009.6
20260509154935 58 164 4.0 5.0 0.00 0.00 0.00 35 1009.8
20260509154435 58 177 0.0 3.0 0.00 0.00 0.00 35 1009.9
20260509153929 58 177 0.0 2.0 0.00 0.00 0.00 38 1009.9
20260509153432 59 177 2.0 4.0 0.00 0.00 0.00 34 1010.0
20260509152932 58 133 0.0 2.0 0.00 0.00 0.00 41 1009.9
20260509152430 58 133 0.0 2.0 0.00 0.00 0.00 38 1010.1
20260509151929 58 132 0.0 5.0 0.00 0.00 0.00 36 1010.1
20260509151432 58 203 2.0 5.0 0.00 0.00 0.00 34 1010.1
20260509150929 57 198 0.0 5.0 0.00 0.00 0.00 37 1010.2
20260509150429 57 197 2.0 5.0 0.00 0.00 0.00 36 1010.2
20260509145932 57 197 1.0 4.0 0.00 0.00 0.00 37 1010.2
20260509145429 56 166 0.0 3.0 0.00 0.00 0.00 37 1010.2
20260509144935 56 138 3.0 3.0 0.00 0.00 0.00 40 1010.3
20260509144429 56 208 1.0 7.0 0.00 0.00 0.00 40 1010.3
20260509143929 55 233 1.0 3.0 0.00 0.00 0.00 42 1010.4
20260509143432 55 257 1.0 5.0 0.00 0.00 0.00 41 1010.5
20260509142929 55 180 0.0 5.0 0.00 0.00 0.00 43 1010.5
20260509142428 55 183 5.0 6.0 0.00 0.00 0.00 41 1010.5
20260509141929 54 135 1.0 5.0 0.00 0.00 0.00 41 1010.6
20260509141429 54 155 1.0 6.0 0.00 0.00 0.00 41 1010.6
20260509140930 54 218 0.0 4.0 0.00 0.00 0.00 44 1010.6
20260509140432 54 202 1.0 6.0 0.00 0.00 0.00 43 1010.6
20260509135929 53 199 3.0 6.0 0.00 0.00 0.00 44 1010.6
20260509135432 53 207 3.0 7.0 0.00 0.00 0.00 41 1010.6
20260509134928 53 176 1.0 8.0 0.00 0.00 0.00 44 1010.7
20260509134428 53 247 2.0 7.0 0.00 0.00 0.00 44 1010.7
20260509133930 53 227 1.0 5.0 0.00 0.00 0.00 42 1010.7
20260509133429 53 149 2.0 4.0 0.00 0.00 0.00 46 1010.7
20260509132928 52 207 0.0 6.0 0.00 0.00 0.00 45 1010.6
20260509132431 52 203 3.0 6.0 0.00 0.00 0.00 45 1010.7
20260509131929 52 195 4.0 5.0 0.00 0.00 0.00 43 1010.8
20260509131431 51 208 0.0 4.0 0.00 0.00 0.00 45 1010.8
20260509130931 50 255 2.0 4.0 0.00 0.00 0.00 48 1010.9
20260509130431 49 204 1.0 4.0 0.00 0.00 0.00 50 1011.0
20260509125931 48 189 0.0 3.0 0.00 0.00 0.00 51 1010.9
20260509125428 47 188 2.0 5.0 0.00 0.00 0.00 54 1011.0
20260509124931 45 201 2.0 5.0 0.00 0.00 0.00 56 1011.1
20260509124428 44 248 1.0 5.0 0.00 0.00 0.00 62 1011.2
20260509123932 43 189 0.0 1.0 0.00 0.00 0.00 64 1011.2
20260509123428 42 189 0.0 2.0 0.00 0.00 0.00 64 1011.3
20260509122928 42 188 0.0 1.0 0.00 0.00 0.00 65 1011.3
20260509122428 41 188 0.0 0.0 0.00 0.00 0.00 66 1011.3
20260509121931 41 188 0.0 0.0 0.00 0.00 0.00 66 1011.2
20260509121428 41 188 0.0 0.0 0.00 0.00 0.00 67 1011.3
20260509120935 40 188 0.0 2.0 0.00 0.00 0.00 66 1011.3
20260509120431 40 188 0.0 1.0 0.00 0.00 0.00 66 1011.3
20260509115934 39 188 1.0 2.0 0.00 0.00 0.00 66 1011.4
20260509115434 39 188 0.0 2.0 0.00 0.00 0.00 66 1011.4
20260509114929 39 188 2.0 3.0 0.00 0.00 0.00 67 1011.4
20260509114428 38 188 1.0 3.0 0.00 0.00 0.00 68 1011.4
20260509113931 38 188 0.0 3.0 0.00 0.00 0.00 69 1011.4
20260509113428 37 189 0.0 3.0 0.00 0.00 0.00 69 1011.4
20260509112928 37 189 0.0 2.0 0.00 0.00 0.00 69 1011.4
20260509112431 37 189 0.0 2.0 0.00 0.00 0.00 70 1011.4
20260509111932 36 189 1.0 2.0 0.00 0.00 0.00 70 1011.3
20260509111431 36 189 1.0 2.0 0.00 0.00 0.00 71 1011.3
20260509110928 36 189 0.0 4.0 0.00 0.00 0.00 71 1011.3
20260509110428 36 221 0.0 3.0 0.00 0.00 0.00 71 1011.3
20260509105934 36 221 0.0 3.0 0.00 0.00 0.00 71 1011.3
20260509105428 36 221 1.0 3.0 0.00 0.00 0.00 71 1011.3
20260509104934 36 148 0.0 3.0 0.00 0.00 0.00 71 1011.2
20260509104428 35 148 1.0 2.0 0.00 0.00 0.00 71 1011.3
20260509103928 35 148 1.0 3.0 0.00 0.00 0.00 72 1011.3
20260509103431 35 148 1.0 3.0 0.00 0.00 0.00 71 1011.3
20260509102934 35 148 0.0 3.0 0.00 0.00 0.00 72 1011.2
20260509102435 35 148 0.0 3.0 0.00 0.00 0.00 71 1011.2
20260509101930 35 148 0.0 3.0 0.00 0.00 0.00 71 1011.1
20260509101431 35 148 2.0 3.0 0.00 0.00 0.00 71 1011.2
20260509100928 35 148 1.0 3.0 0.00 0.00 0.00 71 1011.1
20260509100432 35 148 1.0 2.0 0.00 0.00 0.00 72 1011.1
20260509095934 35 148 0.0 3.0 0.00 0.00 0.00 72 1011.1
20260509095428 35 148 3.0 3.0 0.00 0.00 0.00 72 1011.0
20260509094927 35 148 0.0 2.0 0.00 0.00 0.00 72 1010.9
20260509094436 35 148 0.0 2.0 0.00 0.00 0.00 72 1010.9
20260509093927 35 148 0.0 2.0 0.00 0.00 0.00 72 1010.9
20260509093437 35 148 0.0 2.0 0.00 0.00 0.00 72 1010.9
20260509092931 35 148 0.0 2.0 0.00 0.00 0.00 71 1010.9
20260509092433 35 148 1.0 3.0 0.00 0.00 0.00 71 1010.9
20260509091931 35 148 1.0 2.0 0.00 0.00 0.00 70 1010.9
20260509091433 35 148 0.0 3.0 0.00 0.00 0.00 71 1010.9
20260509090930 36 148 1.0 2.0 0.00 0.00 0.00 70 1010.9
20260509090430 36 148 0.0 2.0 0.00 0.00 0.00 70 1010.9
20260509085936 36 148 1.0 2.0 0.00 0.00 0.00 71 1010.9
20260509085431 35 148 0.0 3.0 0.00 0.00 0.00 71 1010.9
20260509084931 35 148 1.0 2.0 0.00 0.00 0.00 71 1010.8
20260509084431 35 148 1.0 2.0 0.00 0.00 0.00 71 1010.8
20260509083927 36 148 0.0 2.0 0.00 0.00 0.00 71 1010.8
20260509083427 36 148 2.0 4.0 0.00 0.00 0.00 71 1010.8
20260509082927 36 148 2.0 2.0 0.00 0.00 0.00 71 1010.8
20260509082430 36 148 1.0 2.0 0.00 0.00 0.00 71 1010.9